Time,TemperatureF,DewpointF,PressureIn,WindDirection,WindDirectionDegrees,WindSpeedMPH,WindSpeedGustMPH,Humidity,HourlyPrecipIn,Conditions,Clouds,dailyrainin,SoftwareType,DateUTC
2013-03-27 00:00:00,31.5,27.2,30.07,ESE,115,0.0,0.0,84,0.00,,,0.00,Wunderground v.1.15,2013-03-27 04:00:00,
2013-03-27 00:10:00,30.9,26.9,30.08,ESE,114,0.0,0.0,85,0.00,,,0.00,Wunderground v.1.15,2013-03-27 04:10:00,
2013-03-27 00:20:00,30.3,26.6,30.07,ESE,114,0.0,0.0,86,0.00,,,0.00,Wunderground v.1.15,2013-03-27 04:20:00,
2013-03-27 08:00:00,28.1,26.6,30.12,NW,304,0.0,0.0,94,0.00,,,0.00,Wunderground v.1.15,2013-03-27 12:00:00,
2013-03-27 08:10:00,29.1,27.6,30.12,NW,305,0.0,0.0,94,0.00,,,0.00,Wunderground v.1.15,2013-03-27 12:10:00,
2013-03-27 08:20:00,29.7,27.7,30.12,NW,305,0.0,0.0,92,0.00,,,0.00,Wunderground v.1.15,2013-03-27 12:20:00,
2013-03-27 08:30:00,30.2,28.2,30.13,NW,305,0.0,0.0,92,0.00,,,0.00,Wunderground v.1.15,2013-03-27 12:30:00,
2013-03-27 08:35:00,30.6,28.0,30.13,East,81,0.0,0.0,90,0.00,,,0.00,Wunderground v.1.15,2013-03-27 12:35:00,
2013-03-27 08:45:00,32.3,28.3,30.13,South,188,1.0,3.0,85,0.00,,,0.00,Wunderground v.1.15,2013-03-27 12:45:00,
2013-03-27 08:55:00,33.9,28.4,30.13,West,264,1.0,2.0,80,0.00,,,0.00,Wunderground v.1.15,2013-03-27 12:55:00,
2013-03-27 09:00:00,34.9,28.4,30.13,WNW,290,1.0,1.0,77,0.00,,,0.00,Wunderground v.1.15,2013-03-27 13:00:00,
2013-03-27 09:10:00,36.6,29.1,30.13,WNW,290,3.0,3.0,74,0.00,,,0.00,Wunderground v.1.15,2013-03-27 13:10:00,
2013-03-27 09:15:00,37.1,28.6,30.14,West,277,3.0,3.0,71,0.00,,,0.00,Wunderground v.1.15,2013-03-27 13:15:00,
2013-03-27 09:20:00,37.3,29.1,30.13,NNE,12,4.0,4.0,72,0.00,,,0.00,Wunderground v.1.15,2013-03-27 13:20:00,
2013-03-27 09:30:00,37.7,28.8,30.14,NE,38,3.0,6.0,70,0.00,,,0.00,Wunderground v.1.15,2013-03-27 13:30:00,
2013-03-27 09:35:00,37.8,28.5,30.14,SW,235,3.0,6.0,69,0.00,,,0.00,Wunderground v.1.15,2013-03-27 13:35:00,
2013-03-27 09:45:00,37.9,28.3,30.14,West,259,3.0,4.0,68,0.00,,,0.00,Wunderground v.1.15,2013-03-27 13:45:00,
2013-03-27 09:50:00,37.7,28.1,30.14,SSW,195,4.0,4.0,68,0.00,,,0.00,Wunderground v.1.15,2013-03-27 13:50:00,
2013-03-27 10:00:00,37.9,28.3,30.14,SE,136,3.0,3.0,68,0.00,,,0.00,Wunderground v.1.15,2013-03-27 14:00:00,
2013-03-27 10:10:00,38.1,28.1,30.14,NW,319,3.0,3.0,67,0.00,,,0.00,Wunderground v.1.15,2013-03-27 14:10:00,
2013-03-27 10:15:00,38.5,28.5,30.14,WNW,291,3.0,3.0,67,0.00,,,0.00,Wunderground v.1.15,2013-03-27 14:15:00,
2013-03-27 10:25:00,38.5,28.1,30.14,ENE,63,3.0,4.0,66,0.00,,,0.00,Wunderground v.1.15,2013-03-27 14:25:00,
2013-03-27 10:30:00,38.4,28.0,30.14,SW,234,4.0,5.0,66,0.00,,,0.00,Wunderground v.1.15,2013-03-27 14:30:00,
2013-03-27 10:40:00,38.7,28.7,30.14,WNW,293,4.0,4.0,67,0.00,,,0.00,Wunderground v.1.15,2013-03-27 14:40:00,
2013-03-27 10:45:00,38.9,28.5,30.14,ENE,58,3.0,4.0,66,0.00,,,0.00,Wunderground v.1.15,2013-03-27 14:45:00,
2013-03-27 10:55:00,39.3,28.9,30.14,West,270,3.0,5.0,66,0.00,,,0.00,Wunderground v.1.15,2013-03-27 14:55:00,
2013-03-27 11:00:00,39.2,28.4,30.14,West,272,4.0,6.0,65,0.00,,,0.00,Wunderground v.1.15,2013-03-27 15:00:00,
2013-03-27 11:10:00,39.6,29.2,30.14,SW,218,2.0,5.0,66,0.00,,,0.00,Wunderground v.1.15,2013-03-27 15:10:00,
2013-03-27 11:20:00,39.6,28.4,30.14,South,187,3.0,3.0,64,0.00,,,0.00,Wunderground v.1.15,2013-03-27 15:20:00,
2013-03-27 11:30:00,39.7,28.9,30.14,WSW,254,2.0,2.0,65,0.00,,,0.00,Wunderground v.1.15,2013-03-27 15:30:00,
2013-03-27 11:40:00,39.5,28.7,30.14,NNW,329,2.0,2.0,65,0.00,,,0.00,Wunderground v.1.15,2013-03-27 15:40:00,
2013-03-27 11:50:00,39.5,28.3,30.14,WNW,290,1.0,3.0,64,0.00,,,0.00,Wunderground v.1.15,2013-03-27 15:50:00,
2013-03-27 12:00:00,39.1,28.7,30.14,NNW,335,2.0,2.0,66,0.00,,,0.00,Wunderground v.1.15,2013-03-27 16:00:00,
2013-03-27 12:10:00,39.5,29.1,30.14,WSW,250,2.0,2.0,66,0.00,,,0.00,Wunderground v.1.15,2013-03-27 16:10:00,
2013-03-27 12:15:00,39.7,29.6,30.14,NNW,330,2.0,2.0,67,0.00,,,0.00,Wunderground v.1.15,2013-03-27 16:15:00,
2013-03-27 12:20:00,39.6,29.2,30.14,NNW,343,2.0,2.0,66,0.00,,,0.00,Wunderground v.1.15,2013-03-27 16:20:00,
2013-03-27 12:30:00,39.5,29.1,30.14,WNW,288,2.0,2.0,66,0.00,,,0.00,Wunderground v.1.15,2013-03-27 16:30:00,
2013-03-27 12:35:00,39.6,28.8,30.14,WNW,295,2.0,2.0,65,0.00,,,0.00,Wunderground v.1.15,2013-03-27 16:35:00,
2013-03-27 12:45:00,40.2,29.4,30.14,West,266,3.0,3.0,65,0.00,,,0.00,Wunderground v.1.15,2013-03-27 16:45:00,
2013-03-27 12:50:00,40.5,29.3,30.14,NNW,342,3.0,3.0,64,0.00,,,0.00,Wunderground v.1.15,2013-03-27 16:50:00,
2013-03-27 13:00:00,40.7,29.1,30.14,West,276,3.0,4.0,63,0.00,,,0.00,Wunderground v.1.15,2013-03-27 17:00:00,
2013-03-27 13:10:00,40.7,28.3,30.14,SW,221,2.0,2.0,61,0.00,,,0.00,Wunderground v.1.15,2013-03-27 17:10:00,
2013-03-27 13:15:00,40.7,28.3,30.14,SW,224,3.0,3.0,61,0.00,,,0.00,Wunderground v.1.15,2013-03-27 17:15:00,
2013-03-27 13:25:00,40.5,27.7,30.14,NNW,340,2.0,3.0,60,0.00,,,0.00,Wunderground v.1.15,2013-03-27 17:25:00,
2013-03-27 13:35:00,40.6,27.4,30.14,NNE,12,3.0,3.0,59,0.00,,,0.00,Wunderground v.1.15,2013-03-27 17:35:00,
2013-03-27 13:45:00,40.3,28.7,30.14,NNW,330,2.0,3.0,63,0.00,,,0.00,Wunderground v.1.15,2013-03-27 17:45:00,
2013-03-27 13:55:00,39.8,29.7,30.15,East,98,2.0,4.0,67,0.00,,,0.00,Wunderground v.1.15,2013-03-27 17:55:00,
2013-03-27 14:05:00,39.8,29.7,30.14,SE,142,3.0,4.0,67,0.00,,,0.00,Wunderground v.1.15,2013-03-27 18:05:00,
2013-03-27 14:10:00,40.3,29.5,30.14,NW,310,3.0,4.0,65,0.00,,,0.00,Wunderground v.1.15,2013-03-27 18:10:00,
2013-03-27 14:15:00,40.2,29.4,30.14,South,191,4.0,4.0,65,0.00,,,0.00,Wunderground v.1.15,2013-03-27 18:15:00,
2013-03-27 14:25:00,40.3,28.3,30.14,NNE,26,3.0,4.0,62,0.00,,,0.00,Wunderground v.1.15,2013-03-27 18:25:00,
2013-03-27 14:35:00,41.3,28.4,30.14,NW,315,3.0,3.0,60,0.00,,,0.00,Wunderground v.1.15,2013-03-27 18:35:00,
2013-03-27 14:40:00,41.6,28.3,30.13,North,354,3.0,5.0,59,0.00,,,0.00,Wunderground v.1.15,2013-03-27 18:40:00,
2013-03-27 14:45:00,41.6,28.3,30.14,North,5,2.0,5.0,59,0.00,,,0.00,Wunderground v.1.15,2013-03-27 18:45:00,
2013-03-27 14:55:00,41.2,28.8,30.14,NE,56,3.0,6.0,61,0.00,,,0.00,Wunderground v.1.15,2013-03-27 18:55:00,
2013-03-27 15:00:00,41.6,27.9,30.13,ESE,113,4.0,4.0,58,0.00,,,0.00,Wunderground v.1.15,2013-03-27 19:00:00,
2013-03-27 15:10:00,42.3,27.7,30.13,West,277,4.0,5.0,56,0.00,,,0.00,Wunderground v.1.15,2013-03-27 19:10:00,
2013-03-27 15:15:00,42.3,27.3,30.13,NE,47,4.0,5.0,55,0.00,,,0.00,Wunderground v.1.15,2013-03-27 19:15:00,
2013-03-27 15:25:00,42.1,27.1,30.13,NNE,13,3.0,6.0,55,0.00,,,0.00,Wunderground v.1.15,2013-03-27 19:25:00,
2013-03-27 15:30:00,41.3,28.9,30.14,NE,49,4.0,4.0,61,0.00,,,0.00,Wunderground v.1.15,2013-03-27 19:30:00,
2013-03-27 15:40:00,40.1,28.9,30.13,NE,38,3.0,3.0,64,0.00,,,0.00,Wunderground v.1.15,2013-03-27 19:40:00,
2013-03-27 15:45:00,40.6,28.6,30.12,SSE,162,2.0,3.0,62,0.00,,,0.00,Wunderground v.1.15,2013-03-27 19:45:00,
2013-03-27 15:55:00,41.1,26.6,30.12,WSW,246,3.0,7.0,56,0.00,,,0.00,Wunderground v.1.15,2013-03-27 19:55:00,
2013-03-27 16:00:00,41.1,29.1,30.12,SSW,197,4.0,4.0,62,0.00,,,0.00,Wunderground v.1.15,2013-03-27 20:00:00,
2013-03-27 16:10:00,41.6,28.3,30.12,East,84,3.0,3.0,59,0.00,,,0.00,Wunderground v.1.15,2013-03-27 20:10:00,
2013-03-27 16:20:00,42.2,27.6,30.11,WSW,252,3.0,3.0,56,0.00,,,0.00,Wunderground v.1.15,2013-03-27 20:20:00,
2013-03-27 16:30:00,42.3,27.7,30.12,SW,233,3.0,3.0,56,0.00,,,0.00,Wunderground v.1.15,2013-03-27 20:30:00,
2013-03-27 16:40:00,41.8,28.1,30.13,NE,39,3.0,3.0,58,0.00,,,0.00,Wunderground v.1.15,2013-03-27 20:40:00,
2013-03-27 16:45:00,41.6,27.9,30.12,NNE,30,3.0,3.0,58,0.00,,,0.00,Wunderground v.1.15,2013-03-27 20:45:00,
2013-03-27 16:50:00,42.1,27.9,30.12,ESE,115,3.0,3.0,57,0.00,,,0.00,Wunderground v.1.15,2013-03-27 20:50:00,
2013-03-27 17:00:00,43.5,27.0,30.11,West,266,3.0,3.0,52,0.00,,,0.00,Wunderground v.1.15,2013-03-27 21:00:00,
2013-03-27 17:10:00,44.1,27.6,30.11,NNW,327,2.0,2.0,52,0.00,,,0.00,Wunderground v.1.15,2013-03-27 21:10:00,
2013-03-27 17:15:00,44.0,28.0,30.12,SW,215,3.0,3.0,53,0.00,,,0.00,Wunderground v.1.15,2013-03-27 21:15:00,
2013-03-27 17:25:00,43.1,27.1,30.12,NNE,20,3.0,3.0,53,0.00,,,0.00,Wunderground v.1.15,2013-03-27 21:25:00,
2013-03-27 17:35:00,43.0,27.5,30.12,WNW,283,1.0,2.0,54,0.00,,,0.00,Wunderground v.1.15,2013-03-27 21:35:00,
2013-03-27 17:45:00,42.7,26.7,30.12,NNW,346,2.0,3.0,53,0.00,,,0.00,Wunderground v.1.15,2013-03-27 21:45:00,
2013-03-27 17:55:00,42.1,27.1,30.13,NE,40,3.0,4.0,55,0.00,,,0.00,Wunderground v.1.15,2013-03-27 21:55:00,
2013-03-27 18:00:00,41.7,27.1,30.13,ENE,67,4.0,4.0,56,0.00,,,0.00,Wunderground v.1.15,2013-03-27 22:00:00,
2013-03-27 18:05:00,41.6,27.5,30.13,NW,310,3.0,4.0,57,0.00,,,0.00,Wunderground v.1.15,2013-03-27 22:05:00,
2013-03-27 18:15:00,41.6,27.5,30.13,WSW,255,2.0,3.0,57,0.00,,,0.00,Wunderground v.1.15,2013-03-27 22:15:00,
2013-03-27 18:25:00,41.8,28.1,30.13,North,351,1.0,3.0,58,0.00,,,0.00,Wunderground v.1.15,2013-03-27 22:25:00,
2013-03-27 18:35:00,41.4,27.7,30.14,SE,128,1.0,1.0,58,0.00,,,0.00,Wunderground v.1.15,2013-03-27 22:35:00,
2013-03-27 18:40:00,41.2,27.5,30.14,SW,218,1.0,1.0,58,0.00,,,0.00,Wunderground v.1.15,2013-03-27 22:40:00,
2013-03-27 18:50:00,40.8,27.6,30.14,NNE,32,1.0,2.0,59,0.00,,,0.00,Wunderground v.1.15,2013-03-27 22:50:00,
2013-03-27 18:55:00,40.6,27.8,30.14,East,87,1.0,2.0,60,0.00,,,0.00,Wunderground v.1.15,2013-03-27 22:55:00,
2013-03-27 19:00:00,40.5,28.5,30.14,NW,321,2.0,5.0,62,0.00,,,0.00,Wunderground v.1.15,2013-03-27 23:00:00,
2013-03-27 19:10:00,40.0,28.8,30.14,SSE,154,2.0,2.0,64,0.00,,,0.00,Wunderground v.1.15,2013-03-27 23:10:00,
2013-03-27 19:15:00,39.7,28.9,30.14,NNW,328,1.0,2.0,65,0.00,,,0.00,Wunderground v.1.15,2013-03-27 23:15:00,
2013-03-27 19:20:00,39.5,28.7,30.14,SSW,210,1.0,1.0,65,0.00,,,0.00,Wunderground v.1.15,2013-03-27 23:20:00,
2013-03-27 19:30:00,39.1,28.3,30.14,NNW,336,1.0,1.0,65,0.00,,,0.00,Wunderground v.1.15,2013-03-27 23:30:00,
2013-03-27 19:35:00,38.9,28.1,30.14,NE,50,1.0,2.0,65,0.00,,,0.00,Wunderground v.1.15,2013-03-27 23:35:00,
2013-03-27 19:40:00,38.7,27.9,30.14,SSE,148,1.0,1.0,65,0.00,,,0.00,Wunderground v.1.15,2013-03-27 23:40:00,
2013-03-27 19:45:00,38.5,28.1,30.15,ESE,122,1.0,1.0,66,0.00,,,0.00,Wunderground v.1.15,2013-03-27 23:45:00,
2013-03-27 19:50:00,38.1,27.7,30.15,ESE,123,0.0,0.0,66,0.00,,,0.00,Wunderground v.1.15,2013-03-27 23:50:00,
2013-03-27 19:55:00,37.8,27.5,30.15,North,359,0.0,0.0,66,0.00,,,0.00,Wunderground v.1.15,2013-03-27 23:55:00,
2013-03-27 20:05:00,37.4,27.8,30.15,NE,46,0.0,1.0,68,0.00,,,0.00,Wunderground v.1.15,2013-03-28 00:05:00,
2013-03-27 20:15:00,36.5,27.6,30.15,West,259,0.0,1.0,70,0.00,,,0.00,Wunderground v.1.15,2013-03-28 00:15:00,
2013-03-27 20:20:00,36.1,27.3,30.15,WSW,258,0.0,0.0,70,0.00,,,0.00,Wunderground v.1.15,2013-03-28 00:20:00,
2013-03-27 20:30:00,35.9,27.4,30.15,ESE,122,0.0,1.0,71,0.00,,,0.00,Wunderground v.1.15,2013-03-28 00:30:00,
2013-03-27 20:35:00,35.5,27.4,30.15,SSW,198,0.0,1.0,72,0.00,,,0.00,Wunderground v.1.15,2013-03-28 00:35:00,
2013-03-27 20:45:00,34.4,27.0,30.16,SSW,198,0.0,0.0,74,0.00,,,0.00,Wunderground v.1.15,2013-03-28 00:45:00,
2013-03-27 20:55:00,33.7,26.9,30.16,ENE,74,0.0,0.0,76,0.00,,,0.00,Wunderground v.1.15,2013-03-28 00:55:00,
2013-03-27 21:00:00,33.4,27.0,30.16,ENE,74,0.0,1.0,77,0.00,,,0.00,Wunderground v.1.15,2013-03-28 01:00:00,
2013-03-27 21:10:00,32.8,26.7,30.16,ENE,73,0.0,0.0,78,0.00,,,0.00,Wunderground v.1.15,2013-03-28 01:10:00,
2013-03-27 21:15:00,32.8,26.7,30.17,South,173,0.0,0.0,78,0.00,,,0.00,Wunderground v.1.15,2013-03-28 01:15:00,
2013-03-27 21:25:00,32.4,26.9,30.17,South,172,0.0,0.0,80,0.00,,,0.00,Wunderground v.1.15,2013-03-28 01:25:00,
2013-03-27 21:30:00,32.2,26.7,30.17,South,173,0.0,0.0,80,0.00,,,0.00,Wunderground v.1.15,2013-03-28 01:30:00,
2013-03-27 21:40:00,31.9,26.7,30.17,South,173,0.0,0.0,81,0.00,,,0.00,Wunderground v.1.15,2013-03-28 01:40:00,
2013-03-27 21:45:00,31.8,26.6,30.17,South,173,0.0,0.0,81,0.00,,,0.00,Wunderground v.1.15,2013-03-28 01:45:00,
2013-03-27 21:50:00,31.8,26.6,30.17,South,173,0.0,0.0,81,0.00,,,0.00,Wunderground v.1.15,2013-03-28 01:50:00,
2013-03-27 22:00:00,32.1,27.2,30.18,SSE,165,0.0,0.0,82,0.00,,,0.00,Wunderground v.1.15,2013-03-28 02:00:00,
2013-03-27 22:10:00,32.4,27.2,30.18,SSE,165,0.0,0.0,81,0.00,,,0.00,Wunderground v.1.15,2013-03-28 02:10:00,
2013-03-27 22:20:00,32.8,27.6,30.18,SSE,165,0.0,0.0,81,0.00,,,0.00,Wunderground v.1.15,2013-03-28 02:20:00,
2013-03-27 22:30:00,33.3,27.5,30.18,SSE,165,0.0,0.0,79,0.00,,,0.00,Wunderground v.1.15,2013-03-28 02:30:00,
2013-03-27 22:35:00,33.5,27.1,30.17,SW,225,0.0,1.0,77,0.00,,,0.00,Wunderground v.1.15,2013-03-28 02:35:00,
2013-03-27 22:40:00,33.9,27.8,30.18,South,173,0.0,0.0,78,0.00,,,0.00,Wunderground v.1.15,2013-03-28 02:40:00,
2013-03-27 22:50:00,33.7,27.6,30.18,South,174,0.0,0.0,78,0.00,,,0.00,Wunderground v.1.15,2013-03-28 02:50:00,
2013-03-27 22:55:00,33.7,27.9,30.17,South,173,0.0,0.0,79,0.00,,,0.00,Wunderground v.1.15,2013-03-28 02:55:00,
2013-03-27 23:00:00,33.8,28.0,30.17,South,173,0.0,0.0,79,0.00,,,0.00,Wunderground v.1.15,2013-03-28 03:00:00,
2013-03-27 23:10:00,33.9,28.1,30.18,ESE,113,0.0,0.0,79,0.00,,,0.00,Wunderground v.1.15,2013-03-28 03:10:00,
2013-03-27 23:15:00,33.7,27.9,30.17,North,7,0.0,0.0,79,0.00,,,0.00,Wunderground v.1.15,2013-03-28 03:15:00,
2013-03-27 23:25:00,33.4,27.6,30.17,East,87,0.0,1.0,79,0.00,,,0.00,Wunderground v.1.15,2013-03-28 03:25:00,
2013-03-27 23:35:00,33.6,28.4,30.17,East,86,1.0,1.0,81,0.00,,,0.00,Wunderground v.1.15,2013-03-28 03:35:00,
2013-03-27 23:45:00,33.5,28.6,30.17,SE,145,0.0,1.0,82,0.00,,,0.00,Wunderground v.1.15,2013-03-28 03:45:00,
2013-03-27 23:50:00,33.4,28.2,30.17,SE,139,0.0,0.0,81,0.00,,,0.00,Wunderground v.1.15,2013-03-28 03:50:00,
2013-03-27 23:55:00,33.4,28.2,30.17,SE,127,0.0,0.0,81,0.00,,,0.00,Wunderground v.1.15,2013-03-28 03:55:00,